Zurück zum Katalog

STARLINK-31511

AktivKommunikationVLEO
NORAD 59462·PAYLOAD·🇺🇸 United States

Gestartet Apr 10, 2024 von Cape Canaveral Space Force Station

Loading…

Nächste Überflüge (nächste 24 Stunden)

TLE

AktuellSource: CelesTrak SupGP

Epoche: Sep 14, 2026, 21:38 UTC

1 59462C 24068H   26257.90187500  .00065758  00000+0  23822-2 0  2574
2 59462  43.0044  46.1130 0001709 277.8700 252.7051 15.27538933    15

Verfolge STARLINK-31511 in Echtzeit mit AllMySat

Download on the App Store